USGS 09085100 COLORADO RIVER BELOW GLENWOOD SPRINGS, CO

PROVISIONAL DATA SUBJECT TO REVISION

Click to hidestation-specific text
Click for larger image

Station operated by the U.S. Geological Survey, Colorado Water Science Center, as part of the USGS National Streamflow Information Program (NSIP).

Current shift adjusted rating table.
What is a shift adjusted stage-discharge rating table?

Boating safety tips

This station managed by the Grand Junction Field Office.

Available Parameters Available Period
  
1986-06-21  2023-01-31
2020-10-01  2023-01-31







 (7)
 

  -- or --

 


 

Summary of all available data for this site
Instantaneous-data availability statement
Discharge, cubic feet per second
TIMEJan 24Jan 25Jan 26Jan 27Jan 28Jan 29Jan 30Jan 31
00:00 MST1,410P  1,310P  1,350P  1,260P  1,300P  1,290P  1,260P  1,260P  
00:15 MST1,430P  1,310P  1,350P  1,240P  1,300P  1,290P  1,260P  1,260P  
00:30 MST1,440P  1,310P  1,350P  1,190P  1,290P  1,280P  1,260P  1,250P  
00:45 MST1,430P  1,330P  1,350P  1,170P  1,290P  1,290P  1,260P  1,250P  
01:00 MST1,430P  1,340P  1,340P  1,170P  1,290P  1,290P  1,260P  1,250P  
01:15 MST1,410P  1,340P  1,340P  1,180P  1,290P  1,290P  1,260P  1,250P  
01:30 MST1,400P  1,340P  1,340P  1,190P  1,290P  1,290P  1,260P  1,250P  
01:45 MST1,390P  1,340P  1,340P  1,190P  1,280P  1,290P  1,260P  1,250P  
02:00 MST1,390P  1,340P  1,330P  1,220P  1,280P  1,280P  1,260P  1,250P  
02:15 MST1,390P  1,330P  1,310P  1,240P  1,260P  1,280P  1,280P  1,250P  
02:30 MST1,390P  1,330P  1,300P  1,290P  1,260P  1,280P  1,280P  1,250P  
02:45 MST1,380P  1,330P  1,300P  1,260P  1,260P  1,280P  1,280P  1,250P  
03:00 MST1,360P  1,340P  1,290P  1,220P  1,260P  1,280P  1,280P  1,240P  
03:15 MST1,350P  1,330P  1,290P  1,180P  1,260P  1,290P  1,260P  1,250P  
03:30 MST1,340P  1,330P  1,290P  1,160P  1,260P  1,290P  1,260P  1,240P  
03:45 MST1,330P  1,310P  1,290P  1,130P  1,280P  1,290P  1,280P  1,240P  
04:00 MST1,330P  1,290P  1,290P  1,120P  1,280P  1,290P  1,280P  1,240P  
04:15 MST1,330P  1,260P  1,290P  1,120P  1,280P  1,280P  1,280P  1,240P  
04:30 MST1,310P  1,250P  1,280P  1,120P  1,300P  1,280P  1,280P  1,230P  
04:45 MST1,300P  1,250P  1,260P  1,120P  1,300P  1,280P  1,280P  1,230P  
05:00 MST1,290P  1,240P  1,250P  1,120P  1,300P  1,290P  1,280P  1,230P  
05:15 MST1,280P  1,250P  1,240P  1,110P  1,300P  1,290P  1,280P  1,230P  
05:30 MST1,260P  1,250P  1,240P  1,100P  1,300P  1,290P  1,260P  1,230P  
05:45 MST1,260P  1,250P  1,240P  1,100P  1,300P  1,290P  1,280P  1,220P  
06:00 MST1,260P  1,250P  1,240P  1,090P  1,300P  1,290P  1,280P  1,220P  
06:15 MST1,260P  1,250P  1,250P  1,090P  1,300P  1,280P  1,280P  1,220P  
06:30 MST1,260P  1,250P  1,250P  1,090P  1,300P  1,290P  1,280P  1,200P  
06:45 MST1,260P  1,250P  1,260P  1,090P  1,300P  1,280P  1,280P  1,190P  
07:00 MST1,260P  1,250P  1,250P  1,100P  1,300P  1,280P  1,280P  1,190P  
07:15 MST1,260P  1,250P  1,260P  1,100P  1,300P  1,290P  1,280P  1,180P  
07:30 MST1,260P  1,250P  1,250P  1,100P  1,300P  1,290P  1,260P  1,180P  
07:45 MST1,260P  1,260P  1,230P  1,100P  1,300P  1,290P  1,280P  1,170P  
08:00 MST1,250P  1,250P  1,220P  1,100P  1,300P  1,280P  1,280P  1,170P  
08:15 MST1,250P  1,250P  1,200P  1,110P  1,310P  1,290P  1,280P  1,170P  
08:30 MST1,250P  1,250P  1,190P  1,110P  1,310P  1,280P  1,290P  1,180P  
08:45 MST1,250P  1,240P  1,190P  1,120P  1,310P  1,280P  1,290P  1,170P  
09:00 MST1,260P  1,240P  1,200P  1,150P  1,330P  1,280P  1,290P  1,180P  
09:15 MST1,250P  1,250P  1,200P  1,150P  1,330P  1,280P  1,290P  1,170P  
09:30 MST1,260P  1,250P  1,200P  1,160P  1,310P  1,280P  1,290P  1,160P  
09:45 MST1,250P  1,250P  1,200P  1,160P  1,310P  1,280P  1,290P  1,160P  
10:00 MST1,260P  1,240P  1,200P  1,160P  1,310P  1,280P  1,290P  1,170P  
10:15 MST1,250P  1,240P  1,180P  1,160P  1,330P  1,280P  1,300P  1,170P  
10:30 MST1,250P  1,240P  1,180P  1,150P  1,310P  1,280P  1,290P  1,170P  
10:45 MST1,250P  1,250P  1,180P  1,150P  1,310P  1,260P  1,300P  1,180P  
11:00 MST1,250P  1,250P  1,170P  1,160P  1,310P  1,260P  1,300P  1,170P  
11:15 MST1,250P  1,250P  1,180P  1,160P  1,330P  1,260P  1,290P  1,160P  
11:30 MST1,250P  1,250P  1,190P  1,160P  1,310P  1,260P  1,290P  1,160P  
11:45 MST1,250P  1,250P  1,200P  1,160P  1,310P  1,260P  1,280P  1,160P  
12:00 MST1,250P  1,250P  1,200P  1,160P  1,310P  1,260P  1,280P  1,150P  
12:15 MST1,250P  1,240P  1,200P  1,160P  1,310P  1,260P  1,280P  1,150P  
12:30 MST1,260P  1,230P  1,190P  1,160P  1,310P  1,260P  1,290P  1,150P  
12:45 MST1,260P  1,230P  1,170P  1,160P  1,330P  1,260P  1,290P  1,160P  
13:00 MST1,280P  1,220P  1,160P  1,160P  1,330P  1,250P  1,290P  1,160P  
13:15 MST1,290P  1,230P  1,150P  1,170P  1,330P  1,260P  1,280P  1,160P  
13:30 MST1,290P  1,250P  1,130P  1,170P  1,330P  1,260P  1,280P  1,170P  
13:45 MST1,290P  1,280P  1,110P  1,170P  1,310P  1,260P  1,260P  1,170P  
14:00 MST1,290P  1,290P  1,100P  1,160P  1,310P  1,260P  1,260P  1,170P  
14:15 MST1,290P  1,290P  1,080P  1,150P  1,310P  1,260P  1,260P  1,170P  
14:30 MST1,280P  1,280P  1,070P  1,150P  1,310P  1,260P  1,280P   
14:45 MST1,280P  1,250P  1,060P  1,150P  1,310P  1,250P  1,280P   
15:00 MST1,280P  1,230P  1,070P  1,150P  1,310P  1,250P  1,280P   
15:15 MST1,260P  1,200P  1,070P  1,150P  1,310P  1,250P  1,280P   
15:30 MST1,260P  1,190P  1,070P  1,150P  1,300P  1,250P  1,280P   
15:45 MST1,260P  1,180P  1,070P  1,160P  1,300P  1,250P  1,280P   
16:00 MST1,260P  1,190P  1,070P  1,160P  1,300P  1,250P  1,280P   
16:15 MST1,250P  1,230P  1,070P  1,160P  1,300P  1,250P  1,280P   
16:30 MST1,250P  1,280P  1,060P  1,150P  1,300P  1,250P  1,280P   
16:45 MST1,250P  1,290P  1,060P  1,150P  1,300P  1,250P  1,280P   
17:00 MST1,250P  1,290P  1,050P  1,150P  1,300P  1,250P  1,280P   
17:15 MST1,250P  1,290P  1,050P  1,150P  1,300P  1,250P  1,290P   
17:30 MST1,250P  1,280P  1,050P  1,150P  1,300P  1,240P  1,280P   
17:45 MST1,250P  1,290P  1,050P  1,160P  1,300P  1,250P  1,280P   
18:00 MST1,240P  1,300P  1,030P  1,160P  1,300P  1,250P  1,280P   
18:15 MST1,250P  1,330P  1,030P  1,170P  1,290P  1,250P  1,280P   
18:30 MST1,250P  1,340P  1,030P  1,170P  1,290P  1,260P  1,280P   
18:45 MST1,260P  1,360P  1,020P  1,170P  1,300P  1,260P  1,280P   
19:00 MST1,260P  1,380P  1,010P  1,180P  1,300P  1,260P  1,280P   
19:15 MST1,260P  1,390P  1,010P  1,190P  1,300P  1,250P  1,280P   
19:30 MST1,260P  1,400P  1,020P  1,190P  1,310P  1,260P  1,280P   
19:45 MST1,280P  1,390P  1,020P  1,200P  1,310P  1,260P  1,290P   
20:00 MST1,260P  1,380P  1,020P  1,200P  1,300P  1,260P  1,280P   
20:15 MST1,280P  1,360P  1,030P  1,200P  1,280P  1,260P  1,280P   
20:30 MST1,280P  1,360P  1,050P  1,200P  1,250P  1,260P  1,280P   
20:45 MST1,300P  1,360P  1,050P  1,200P  1,260P  1,260P  1,280P   
21:00 MST1,310P  1,360P  1,060P  1,220P  1,250P  1,250P  1,260P   
21:15 MST1,310P  1,360P  1,070P  1,230P  1,260P  1,250P  1,260P   
21:30 MST1,300P  1,380P  1,070P  1,250P  1,260P  1,250P  1,260P   
21:45 MST1,300P  1,360P  1,080P  1,260P  1,290P  1,260P  1,280P   
22:00 MST1,300P  1,360P  1,080P  1,280P  1,350P  1,260P  1,280P   
22:15 MST1,310P  1,360P  1,080P  1,280P  1,350P  1,260P  1,260P   
22:30 MST1,310P  1,360P  1,090P  1,280P  1,310P  1,280P  1,260P   
22:45 MST1,330P  1,360P  1,090P  1,280P  1,300P  1,280P  1,260P   
23:00 MST1,330P  1,360P  1,100P  1,280P  1,290P  1,260P  1,260P   
23:15 MST1,330P  1,360P  1,110P  1,290P  1,290P  1,260P  1,260P   
23:30 MST1,330P  1,350P  1,160P  1,290P  1,290P  1,260P  1,260P   
23:45 MST1,310P  1,350P  1,230P  1,290P  1,290P  1,260P  1,260P   
COUNT9696969696969658
MAX1,4401,4001,3501,2901,3501,2901,3001,260
MIN1,2401,1801,0101,0901,2501,2401,2601,150

Explanation
  P  Provisional data subject to revision.